This demonstration page uses our WeatherBlox Daily Observations layout. Learn more.

Left ArrowRight Arrow

Hourly Observations for September 17, 2021

Temp ( °F °C ) Dew Point ( °F °C ) Humidity (%) Winds ( mph kmh ) Pressure ( in mb ) Visibility ( mi km ) Precip ( " mm )
12:53 am 00:53 Clear 73 22.8 64 17.8 74 74 S 9 15 29.87 1012 10 16 N/A
1:53 am 01:53 Clear 72 22.2 64 17.8 76 76 SSE 10 17 29.87 1011 10 16 N/A
2:53 am 02:53 Clear 71 21.7 64 17.8 79 79 SSE 9 15 29.88 1012 10 16 N/A
3:53 am 03:53 Clear 69 20.6 63 17.2 81 81 SSE 7 11 29.88 1012 10 16 N/A
4:53 am 04:53 Clear 69 20.6 64 17.8 84 84 SE 7 11 29.90 1013 10 16 N/A
5:53 am 05:53 Clear 68 20 63 17.2 84 84 SSE 6 9 29.92 1013 10 16 N/A
6:53 am 06:53 Partly Cloudy 67 19.4 63 17.2 87 87 SSE 6 9 29.94 1014 10 16 N/A
7:53 am 07:53 Mostly Sunny 67 19.4 64 17.8 91 91 SSE 5 7 29.97 1015 10 16 N/A
8:53 am 08:53 Mostly Sunny 73 22.8 66 18.9 79 79 SSE 8 13 29.99 1016 10 16 N/A
9:53 am 09:53 Mostly Sunny 77 25 66 18.9 69 69 S 7 11 30.01 1016 10 16 N/A
10:53 am 10:53 Partly Cloudy 82 27.8 67 19.4 60 60 S 12 19 30.02 1017 10 16 N/A
11:53 am 11:53 Partly Cloudy 84 28.9 67 19.4 57 57 SSE 9 15 30.03 1017 10 16 N/A
12:53 pm 12:53 Partly Cloudy 86 30 66 18.9 51 51 VRB 3 6 30.04 1017 10 16 N/A
1:53 pm 13:53 Partly Cloudy 88 31.1 67 19.4 50 50 E 10 17 30.02 1017 10 16 N/A
2:53 pm 14:53 Partly Cloudy 89 31.7 66 18.9 47 47 ESE 8 13 30.01 1016 10 16 N/A
3:53 pm 15:53 Partly Cloudy 89 31.7 64 17.8 43 43 E 6 9 30.00 1016 10 16 N/A
4:53 pm 16:53 Partly Cloudy 89 31.7 64 17.8 43 43 SE 13 20 30.00 1016 10 16 N/A
5:53 pm 17:53 Partly Cloudy 88 31.1 64 17.8 45 45 E 9 15 30.01 1016 10 16 N/A
6:53 pm 18:53 Partly Cloudy 85 29.4 63 17.2 48 48 E 9 15 30.02 1017 10 16 N/A
7:53 pm 19:53 Mostly Clear 81 27.2 63 17.2 54 54 E 8 13 30.05 1018 10 16 N/A
8:53 pm 20:53 Mostly Clear 80 26.7 63 17.2 56 56 E 6 9 30.07 1018 10 16 N/A
9:53 pm 21:53 Partly Cloudy 78 25.6 64 17.8 62 62 E 6 9 30.07 1018 10 16 N/A
10:53 pm 22:53 Mostly Clear 77 25 66 18.9 69 69 N 6 9 30.07 1018 10 16 N/A
11:53 pm 23:53 Mostly Clear 73 22.8 66 18.9 79 79 NW 5 7 30.08 1019 10 16 N/A

Powered by AerisWeather